[[{"header":{"parameterUnit":"m.s-1","parameterCategory":1,"la1":30.2991,"la2":30.254,"lo1":-89.0895,"lo2":-89.0444,"dy":0.0017,"dx":0.0017,"nx":28,"ny":28,"refTime":"2023-07-22T21:00:00:Z","depth":0,"parameterNumber":2,"parameterNumberName":"U-component_of_WINDS"},"data":[0,0,0,0,0,0,0,0,0,0,0,0,0,0,0,0,0,0,0,0,0,0,0,0,0,0,0,0,0,0,0,0,0,0,0,0,0,0,0,0,0,0,0,0,0,0,0,0,0,0,0,0,0,0,0,0,0,0,2.8213,2.8215,0,2.8395,2.8397,2.8399,2.8439,2.8438,2.8436,2.8435,2.863,2.8636,2.8642,0,0,0,0,0,0,0,0,0,0,0,0,0,2.7906,2.7911,2.8213,2.8215,2.8217,2.8395,2.8397,2.84,2.8439,2.8438,2.8436,2.8434,2.8628,2.8635,2.8643,0,0,0,0,0,0,0,0,0,0,0,0,0,2.8059,2.7913,2.8212,2.8258,2.8264,2.8394,2.8398,2.8401,2.844,2.8438,2.8436,2.8434,2.8625,2.8634,2.8644,2.8744,0,0,2.8674,2.8678,0,0,0,0,0,0,0,0,2.805,2.807,2.8249,2.8255,2.8262,2.8392,2.8361,2.8516,2.844,2.8373,2.8435,2.8433,2.8553,2.8568,2.8607,2.8753,2.8762,2.8674,2.868,2.8684,2.8687,0,0,0,0,0,0,0,2.804,2.8063,2.8285,2.8252,2.826,2.8272,2.8292,2.839,2.8473,2.8379,2.8382,2.8403,2.8556,2.8598,2.8612,2.8765,2.8674,2.8683,2.8689,2.8692,2.9003,2.9005,0,0,0,0,0,0,2.802,2.8054,2.8279,2.8291,2.8149,2.8279,2.8301,2.8353,2.8471,2.8487,2.8404,2.8404,2.8582,2.8601,2.8619,2.8744,2.8684,2.8693,2.8699,2.9,2.9003,2.9006,0,0,0,0,0,0,2.8013,2.804,2.8272,2.8173,2.8204,2.8287,2.8344,2.8357,2.8399,2.849,2.8506,2.8431,2.8581,2.8606,2.8712,2.8751,2.8698,2.8707,2.8997,2.9001,2.9005,2.8994,0,0,0,0,0,0,2.8004,2.8037,2.8074,2.8174,2.8209,2.836,2.8347,2.8362,2.8415,2.8416,2.852,2.8535,2.8582,2.8698,2.8722,2.8764,2.8714,2.8994,2.8999,2.9004,2.8992,2.8997,2.9002,0,0,0,0,0,2.7993,2.8066,2.8076,2.8103,2.8256,2.8362,2.8382,2.8432,2.8417,2.8457,2.8516,2.8532,2.8743,2.8708,2.8736,2.8781,2.8992,2.8998,2.9003,2.8989,2.8996,2.9002,0,0,0,0,0,0,2.7971,2.8079,2.8092,2.8198,2.827,2.8368,2.8419,2.8437,2.8517,2.8515,2.8576,2.8599,2.8702,2.8753,2.8712,2.8885,2.8867,2.8879,2.8847,2.8855,2.886,2.8845,2.8722,0,0,0,0,0,2.7978,2.8052,2.8144,2.8229,2.8264,2.8335,2.8383,2.8415,2.8493,2.8525,2.8591,2.8669,2.8753,2.8807,2.8889,2.9,2.9023,2.9045,2.905,2.9054,2.9063,2.9125,2.9135,2.9024,2.9024,2.9024,0,0,2.7994,2.8063,2.8106,2.8226,2.8286,2.8364,2.8361,2.8443,2.8502,2.8538,2.8642,2.8694,2.8785,2.8893,2.8945,2.8939,2.9099,2.9061,2.9063,2.907,2.9132,2.9142,2.9151,2.9028,2.9027,2.9027,0,0,2.8063,2.8122,2.8198,2.8258,2.8347,2.8394,2.8413,2.8508,2.8543,2.8648,2.8677,2.8749,2.8892,2.8955,2.9006,2.9099,2.9118,2.9125,2.9152,2.9212,2.9221,2.9229,2.9262,2.9273,2.9134,2.9134,2.9134,0,2.8072,2.8187,2.8237,2.8317,2.837,2.8404,2.8483,2.854,2.8652,2.8689,2.868,2.886,2.8924,2.9048,2.907,2.911,2.9135,2.9113,2.9215,2.9224,2.9232,2.9265,2.9277,2.9134,2.9134,2.9134,2.9134,0,2.8194,2.8274,2.8327,2.8431,2.849,2.857,2.8634,2.8688,2.8715,2.8763,2.887,2.8948,2.9046,2.9078,2.9107,2.9207,2.92,2.9203,2.9186,2.9242,2.9273,2.9286,2.9134,2.9134,2.9134,2.9134,0,0,2.8253,2.8384,2.8402,2.845,2.8552,2.8616,2.8699,2.8792,2.8837,2.8915,2.8986,2.9106,2.9109,2.9167,2.9203,2.9256,2.9324,2.9252,2.9255,2.9263,2.944,2.9437,2.945,2.9338,2.934,2.9342,2.9432,0,2.8334,2.8478,2.8525,2.8647,2.8722,2.8756,2.8828,2.89,2.8947,2.902,2.9075,2.9158,2.9156,2.9191,2.9245,2.9304,2.9361,2.9299,2.9406,2.9409,2.9381,2.9467,2.9464,2.9544,2.9445,2.9447,2.9449,0,2.8446,2.8522,2.865,2.8742,2.8776,2.8839,2.8929,2.8998,2.908,2.9112,2.9176,2.9208,2.9297,2.9276,2.9401,2.9358,2.9405,2.9442,2.9446,2.9457,2.9431,2.948,2.9572,2.9583,2.9468,2.9467,2.9465,0,2.8475,2.8611,2.8705,2.8745,2.8855,2.8899,2.8947,2.9027,2.9081,2.9161,2.9196,2.9286,2.9335,2.9405,2.9462,2.9441,2.9582,2.9566,2.9612,2.961,2.9639,2.9636,2.9739,2.9671,2.967,2.967,2.967,0,2.856,2.8637,2.8719,2.8777,2.8865,2.892,2.9006,2.9057,2.9128,2.9198,2.9235,2.93,2.937,2.9446,2.9491,2.9588,2.961,2.9639,2.965,2.9635,2.9631,2.9666,2.9662,2.9673,2.9673,2.9672,2.9672,0,2.8607,2.8665,2.8769,2.8864,2.889,2.8951,2.9033,2.9092,2.9141,2.923,2.9254,2.9332,2.9423,2.9485,2.9603,2.9633,2.9738,2.9748,2.9709,2.9714,2.9756,2.9751,2.9884,2.9904,2.9823,2.9823,2.9824,0,2.8656,2.8715,2.8816,2.8864,2.8912,2.899,2.9044,2.9101,2.9157,2.9255,2.9302,2.9395,2.9471,2.9615,2.9684,2.9774,2.9787,2.9827,2.9801,2.9784,2.9787,2.9782,2.9788,2.9831,2.9832,2.9832,2.9833,0,2.8737,2.8763,2.8838,2.8924,2.8986,2.9057,2.9129,2.9167,2.9237,2.9298,2.9389,2.9449,2.9567,2.9659,2.9756,2.9809,2.9833,2.984,2.9856,2.9841,2.9815,2.9829,2.9719,2.9837,2.9837,2.9836,2.9836,2.9836,2.8787,2.8841,2.892,2.9003,2.9062,2.9128,2.9188,2.9244,2.932,2.9419,2.945,2.9545,2.9628,2.9759,2.9813,2.989,2.9887,2.991,2.9915,2.992,2.9919,2.9803,2.9908,2.9908,2.9908,2.9908,2.9908,0,2.8869,2.8921,2.8997,2.9095,2.916,2.9175,2.9256,2.931,2.9392,2.9466,2.954,2.9646,2.9735,2.9811,2.9904,2.9951,2.9965,2.9974,2.997,2.9982,2.9916,2.9893,2.9961,2.9961,2.9961,2.9961,2.9961,2.9961,2.8919,2.9012,2.9047,2.9171,2.9224,2.9315,2.936,2.9422,2.9481,2.9596,2.9669,2.9717,2.9793,2.9891,2.9974,2.9995,3.0027,3.0033,3.0056,2.9993,2.9987,2.9981,2.9959,3.004,3.004,3.0115,3.0116,3.0116]},{"header":{"parameterUnit":"m.s-1","parameterCategory":1,"la1":30.2991,"la2":30.254,"lo1":-89.0895,"lo2":-89.0444,"dy":0.0017,"dx":0.0017,"nx":28,"ny":28,"refTime":"2023-07-22T21:00:00:Z","depth":0,"parameterNumber":3,"parameterNumberName":"V-component_of_WINDS"},"data":[0,0,0,0,0,0,0,0,0,0,0,0,0,0,0,0,0,0,0,0,0,0,0,0,0,0,0,0,0,0,0,0,0,0,0,0,0,0,0,0,0,0,0,0,0,0,0,0,0,0,0,0,0,0,0,0,0,0,4.2522,4.2523,0,4.2586,4.2587,4.2588,4.2573,4.2572,4.2571,4.257,4.2632,4.2634,4.2637,0,0,0,0,0,0,0,0,0,0,0,0,0,4.2384,4.2386,4.2522,4.2523,4.2524,4.2586,4.2587,4.2588,4.2573,4.2572,4.257,4.2569,4.2631,4.2634,4.2638,0,0,0,0,0,0,0,0,0,0,0,0,0,4.2445,4.2387,4.2522,4.2524,4.2525,4.2586,4.2587,4.2588,4.2574,4.2572,4.257,4.2568,4.263,4.2634,4.2638,4.27,0,0,4.2651,4.2653,0,0,0,0,0,0,0,0,4.2442,4.2451,4.2523,4.2524,4.2525,4.257,4.2561,4.2626,4.2574,4.2555,4.257,4.2567,4.2612,4.2618,4.2634,4.2703,4.2706,4.2651,4.2654,4.2655,4.2657,0,0,0,0,0,0,0,4.2438,4.2448,4.2547,4.2524,4.2525,4.2521,4.2528,4.2573,4.2593,4.2557,4.2556,4.2564,4.2613,4.263,4.2635,4.2707,4.2651,4.2655,4.2657,4.2659,4.283,4.2832,0,0,0,0,0,0,4.2433,4.2444,4.2545,4.2549,4.2478,4.2525,4.2532,4.2557,4.2593,4.2596,4.2565,4.2563,4.2624,4.263,4.2637,4.2713,4.2655,4.2659,4.2662,4.2828,4.283,4.2833,0,0,0,0,0,0,4.243,4.2442,4.2543,4.2497,4.2509,4.2529,4.2557,4.256,4.2577,4.2599,4.2602,4.2579,4.2622,4.2631,4.2685,4.2714,4.2661,4.2665,4.2825,4.2829,4.2831,4.2863,0,0,0,0,0,0,4.2426,4.2441,4.2466,4.2497,4.2512,4.259,4.2559,4.2562,4.2585,4.2582,4.2613,4.2617,4.2622,4.2679,4.2689,4.2719,4.2668,4.2823,4.2827,4.283,4.286,4.2867,4.2873,0,0,0,0,0,4.2421,4.2471,4.2467,4.2479,4.2543,4.2592,4.26,4.2606,4.2587,4.2611,4.2626,4.2616,4.271,4.2684,4.2696,4.2728,4.2821,4.2826,4.283,4.2857,4.2866,4.2873,0,0,0,0,0,0,4.2441,4.2475,4.2471,4.2533,4.256,4.259,4.262,4.2615,4.2647,4.2643,4.2648,4.2656,4.271,4.2724,4.2695,4.279,4.2762,4.277,4.2779,4.2787,4.2794,4.2789,4.2672,0,0,0,0,0,4.2453,4.2491,4.2519,4.257,4.2584,4.26,4.2622,4.2624,4.2652,4.2663,4.2681,4.2707,4.2743,4.2766,4.2799,4.2862,4.2868,4.2889,4.2896,4.2902,4.2908,4.2941,4.2951,4.2848,4.2848,4.2847,0,0,4.2477,4.2501,4.2524,4.2575,4.2596,4.2635,4.261,4.2651,4.268,4.2669,4.2721,4.2735,4.2764,4.2823,4.2849,4.2836,4.2938,4.2907,4.2912,4.2915,4.2947,4.2957,4.2966,4.2851,4.285,4.285,0,0,4.2541,4.2563,4.2609,4.2631,4.2664,4.2674,4.2685,4.2716,4.2725,4.2778,4.2771,4.2804,4.2865,4.2886,4.2905,4.2978,4.297,4.2989,4.3025,4.3058,4.3066,4.3073,4.3099,4.3108,4.2995,4.2995,4.2995,0,4.2567,4.2625,4.2632,4.2675,4.2698,4.2691,4.2737,4.2758,4.2799,4.2815,4.28,4.2877,4.2896,4.2959,4.2977,4.2993,4.3005,4.2985,4.3064,4.3072,4.3078,4.3103,4.3113,4.2997,4.2997,4.2997,4.2996,0,4.2655,4.2696,4.2729,4.2771,4.2797,4.2841,4.2854,4.288,4.288,4.2892,4.2945,4.2969,4.3007,4.3022,4.3023,4.3086,4.3077,4.3063,4.3036,4.309,4.3114,4.3123,4.3,4.2999,4.2999,4.2998,0,0,4.2732,4.2779,4.2791,4.281,4.2846,4.2878,4.2921,4.296,4.2982,4.3011,4.3048,4.31,4.3088,4.3109,4.3112,4.3141,4.3197,4.3124,4.3124,4.3136,4.3268,4.3278,4.3289,4.3192,4.3194,4.3196,4.3266,0,4.2799,4.2878,4.2886,4.2955,4.2993,4.2988,4.3026,4.3052,4.3064,4.3097,4.311,4.3147,4.3128,4.3141,4.317,4.3184,4.3224,4.318,4.3225,4.3227,4.3218,4.3301,4.3312,4.3377,4.3275,4.3277,4.3278,0,4.2887,4.2921,4.2995,4.3027,4.3043,4.3077,4.3114,4.3146,4.3175,4.3182,4.3207,4.3206,4.325,4.3221,4.3282,4.3252,4.3271,4.3281,4.3283,4.3288,4.3255,4.3307,4.3398,4.3407,4.3292,4.3291,4.329,0,4.2936,4.2999,4.3052,4.3069,4.3107,4.3131,4.3148,4.3176,4.3199,4.3231,4.3246,4.3282,4.3301,4.3329,4.3337,4.3316,4.3398,4.337,4.3404,4.3404,4.3421,4.342,4.3515,4.3434,4.3434,4.3434,4.3433,0,4.3009,4.3055,4.3074,4.3107,4.3157,4.3166,4.3215,4.3231,4.3256,4.329,4.3288,4.332,4.3329,4.3363,4.337,4.3419,4.3428,4.3434,4.3435,4.3434,4.3433,4.3446,4.3442,4.3436,4.3436,4.3435,4.3435,0,4.3072,4.3087,4.3144,4.3176,4.3185,4.3221,4.3248,4.3279,4.3292,4.3335,4.3346,4.3365,4.3405,4.3416,4.3463,4.3468,4.3525,4.3522,4.3516,4.3516,4.3549,4.3546,4.3656,4.3671,4.358,4.3581,4.3582,0,4.3117,4.3152,4.3189,4.3213,4.3231,4.3269,4.3294,4.3303,4.3329,4.3365,4.3391,4.3431,4.3463,4.3527,4.3544,4.358,4.3578,4.3614,4.3583,4.3581,4.3578,4.3576,4.3579,4.3619,4.362,4.3621,4.3622,0,4.3196,4.3203,4.3238,4.3277,4.3307,4.3337,4.3367,4.3386,4.34,4.3428,4.347,4.3495,4.3544,4.3583,4.362,4.3636,4.3631,4.3632,4.3641,4.364,4.3635,4.3638,4.3532,4.3629,4.3628,4.3627,4.3627,4.3627,4.3251,4.3283,4.3314,4.3354,4.3377,4.3405,4.3436,4.3453,4.3488,4.353,4.3534,4.3578,4.3607,4.3656,4.3675,4.3709,4.3698,4.3712,4.3716,4.3719,4.3722,4.363,4.3716,4.3716,4.3715,4.3715,4.3715,0,4.333,4.335,4.3387,4.343,4.3461,4.3456,4.3488,4.3514,4.3555,4.3582,4.3615,4.3662,4.3701,4.3722,4.376,4.3783,4.3782,4.3793,4.3791,4.3795,4.3729,4.3717,4.3793,4.3793,4.3793,4.3793,4.3793,4.3793,4.3375,4.3427,4.3437,4.3502,4.3521,4.3566,4.3585,4.3611,4.3633,4.3688,4.372,4.3734,4.3759,4.3799,4.3834,4.3839,4.3852,4.3865,4.3868,4.3807,4.3799,4.3791,4.378,4.3868,4.3868,4.3931,4.3931,4.3932]}]]